Location: Observatoire de Paris
(48.8363°N, 2.3365°E)
Time: 17:00:23
(UTC+01:00)

BUGSAT 1 - Pass Details

Date: 26 September 2021
Orbit: 557 x 602 km, 98.1° (Epoch: 18 October)

Event Time Altitude Azimuth Distance (km) Brightness Sun altitude
Rises 05:28:50 0° 17° (NNE) 2,804 ? -12.9°
Reaches altitude 10° 05:31:03 10° 23° (NNE) 1,892 ? -12.6°
Maximum altitude 05:35:04 53° 100° (E) 704 ? -11.9°
Drops below altitude 10° 05:38:59 10° 179° (S) 1,853 ? -11.3°
Sets 05:41:08 0° 184° (S) 2,739 ? -11.0°
